Katherine, Australia

2:23 PM ACST on March 25, 2017 (GMT +0930)
Tindal (Military)

Weather History for YPTN - November, 2013

Change the Weather History Date:

Friday, November 15, 2013

  Actual Average Record
Temperature  
Mean Temperature 88 °F -  
Max Temperature 102 °F - - ()
Min Temperature 75 °F - - ()
Cooling Degree Days 24    
Growing Degree Days 38 (Base 50)    
Moisture  
Dew Point 65 °F    
Average Humidity 53    
Maximum Humidity 94    
Minimum Humidity 18    
Precipitation  
Precipitation 0.00 in - - ()
Sea Level Pressure  
Sea Level Pressure 29.80 in    
Wind  
Wind Speed 5 mph ()    
Max Wind Speed 17 mph    
Max Gust Speed 30 mph    
Visibility 6.4 miles    
Events Rain    
T = Trace of Precipitation, MM = Missing Value Source: Averaged Metar Reports

Daily Weather History Graph

Daily Weather History Graph

Search for Another Location

Airport or City:

Trip Planner

Search our weather history database for the weather conditions in past years. The results will help you decide how hot, cold, wet, or windy it might be!

Date:

Astronomy

Nov. 15, 2013 Rise Set
Actual Time 6:02 AM ACST 6:48 PM ACST
Civil Twilight 5:39 AM ACST 7:11 PM ACST
Nautical Twilight 5:12 AM ACST 7:38 PM ACST
Astronomical Twilight 4:45 AM ACST 8:05 PM ACST
Moon 4:49 PM ACST (11/15) 4:03 AM ACST (11/15)
Length of Visible Light 13h 32m
Length of Day
12h 46m
Waxing Gibbous, 93% of the Moon is Illuminated
Nov 15
Waxing Gibbous
Nov 18
Full
Nov 26
Last Quarter
Dec 3
New
Dec 10
First Quarter

Hourly Weather History & Observations

Time (ACST) Temp. Heat Index Dew Point Humidity Pressure Visibility Wind Dir Wind Speed Gust Speed Precip Events Conditions
12:00 AM 80.6 °F 85.4 °F 73.4 °F 79% 29.83 in 6.2 mi Calm Calm - N/A   Unknown
12:30 AM 80.6 °F 85.4 °F 73.4 °F 79% 29.83 in 6.2 mi North 3.5 mph - N/A   Unknown
1:00 AM 80.6 °F 86.2 °F 75.2 °F 84% 29.83 in 6.2 mi West 3.5 mph - N/A   Unknown
1:30 AM 78.8 °F - 75.2 °F 89% 29.83 in 6.2 mi SW 6.9 mph - N/A   Unknown
2:00 AM 78.8 °F - 75.2 °F 89% 29.83 in 6.2 mi WSW 5.8 mph - N/A   Scattered Clouds
2:30 AM 78.8 °F - 73.4 °F 83% 29.83 in 6.2 mi WSW 5.8 mph - N/A   Scattered Clouds
3:00 AM 77.0 °F - 73.4 °F 89% 29.83 in 6.2 mi WSW 2.3 mph - N/A   Unknown
3:30 AM 77.0 °F - 73.4 °F 89% 29.80 in 6.2 mi Calm Calm - N/A   Unknown
4:00 AM 77.0 °F - 73.4 °F 89% 29.80 in 6.2 mi Calm Calm - N/A   Unknown
4:30 AM 77.0 °F - 73.4 °F 89% 29.83 in 6.2 mi WSW 2.3 mph - N/A   Unknown
5:00 AM 75.2 °F - 73.4 °F 94% 29.83 in 6.2 mi SSE 4.6 mph - N/A   Unknown
5:30 AM 75.2 °F - 73.4 °F 94% 29.83 in 6.2 mi Calm Calm - N/A   Unknown
6:00 AM 77.0 °F - 71.6 °F 83% 29.86 in 6.2 mi ENE 4.6 mph - N/A   Unknown
6:30 AM 77.0 °F - 71.6 °F 83% 29.86 in 6.2 mi East 3.5 mph - N/A   Unknown
7:00 AM 78.8 °F - 71.6 °F 78% 29.86 in - ESE 5.8 mph - N/A   Clear
7:30 AM 80.6 °F 84.6 °F 71.6 °F 74% 29.86 in 6.2 mi SE 5.8 mph - N/A   Unknown
8:00 AM 80.6 °F 83.9 °F 69.8 °F 70% 29.86 in - ESE 6.9 mph - N/A   Clear
8:30 AM 84.2 °F 88.4 °F 69.8 °F 62% 29.89 in - SE 6.9 mph - N/A   Clear
9:00 AM 85 °F - 74 °F 61%  in 12 mi SE 2.3 mph - -   Partly Cloudy
9:00 AM 86.0 °F 89.4 °F 68.0 °F 55% 29.86 in - East 4.6 mph - N/A   Clear
9:30 AM 89.6 °F 92.2 °F 66.2 °F 46% 29.89 in 6.2 mi SE 5.8 mph - N/A   Mostly Cloudy
10:00 AM 89.6 °F 92.2 °F 66.2 °F 46% 29.86 in 6.2 mi NE 8.1 mph - N/A   Unknown
10:30 AM 91.4 °F 94.0 °F 66.2 °F 43% 29.86 in 6.2 mi NE 8.1 mph - N/A   Unknown
11:00 AM 93.2 °F 94.9 °F 64.4 °F 38% 29.86 in 6.2 mi NE 8.1 mph - N/A   Unknown
11:30 AM 93.2 °F 94.9 °F 64.4 °F 38% 29.86 in 6.2 mi North 8.1 mph - N/A   Unknown
12:00 PM 95.0 °F 95.2 °F 60.8 °F 32% 29.83 in 6.2 mi East 10.4 mph - N/A   Unknown
12:30 PM 96.8 °F 97.1 °F 60.8 °F 30% 29.83 in 6.2 mi ENE 13.8 mph - N/A   Unknown
1:00 PM 98.6 °F 99.4 °F 60.8 °F 29% 29.80 in 6.2 mi East 15.0 mph - N/A   Unknown
1:30 PM 100.4 °F 100.2 °F 59.0 °F 25% 29.80 in 6.2 mi East 12.7 mph - N/A   Unknown
2:00 PM 96.8 °F 96.2 °F 59.0 °F 28% 29.77 in 6.2 mi NNE 6.9 mph - N/A   Scattered Clouds
2:30 PM 98.6 °F 98.5 °F 59.0 °F 27% 29.74 in 6.2 mi NNE 10.4 mph - N/A   Scattered Clouds
3:00 PM 95 °F - 65 °F 27%  in 12 mi East 3.5 mph - -   Partly Cloudy
3:00 PM 98.6 °F 97.2 °F 55.4 °F 24% 29.74 in 6.2 mi East 13.8 mph - N/A   Scattered Clouds
3:30 PM 100.4 °F - 51.8 °F 20% 29.71 in 6.2 mi ENE 11.5 mph - N/A   Unknown
4:00 PM 102.2 °F - 51.8 °F 18% 29.71 in 6.2 mi ESE 13.8 mph - N/A   Unknown
4:30 PM 100.4 °F - 51.8 °F 20% 29.71 in 6.2 mi NE 11.5 mph - N/A   Unknown
5:00 PM 100.4 °F - 51.8 °F 20% 29.71 in 6.2 mi ENE 11.5 mph - N/A   Unknown
5:30 PM 100.4 °F - 51.8 °F 20% 29.71 in 6.2 mi ENE 9.2 mph - N/A   Unknown
6:00 PM 98.6 °F - 51.8 °F 21% 29.71 in 6.2 mi NE 8.1 mph - N/A   Unknown
6:30 PM 98.6 °F 97.2 °F 55.4 °F 24% 29.74 in 6.2 mi ENE 10.4 mph - N/A   Mostly Cloudy
7:00 PM 95.0 °F 94.4 °F 59.0 °F 30% 29.74 in 6.2 mi NE 16.1 mph - N/A   Mostly Cloudy
7:11 PM 91.4 °F 92.1 °F 62.6 °F 38% 29.74 in 6.2 mi ENE 17.3 mph 29.9 mph N/A Rain Light Rain
7:30 PM 91.4 °F 92.1 °F 62.6 °F 38% 29.74 in 6.2 mi North 9.2 mph - N/A Rain Light Rain Showers
8:00 PM 91.4 °F 91.4 °F 60.8 °F 36% 29.77 in 6.2 mi East 13.8 mph - N/A   Unknown
8:30 PM 91.4 °F 91.4 °F 60.8 °F 36% 29.77 in 6.2 mi East 8.1 mph - N/A   Unknown
9:00 PM 89.6 °F 90.1 °F 62.6 °F 40% 29.77 in 6.2 mi East 4.6 mph - N/A   Unknown
9:30 PM 87.8 °F 89.4 °F 64.4 °F 46% 29.77 in 6.2 mi North 6.9 mph - N/A   Unknown
10:00 PM 87.8 °F 91.4 °F 68.0 °F 52% 29.80 in 6.2 mi North 4.6 mph - N/A   Unknown
10:30 PM 86.0 °F 90.4 °F 69.8 °F 58% 29.80 in 6.2 mi NW 4.6 mph - N/A   Unknown
11:00 PM 86.0 °F 89.4 °F 68.0 °F 55% 29.80 in 6.2 mi NW 3.5 mph - N/A   Unknown
11:30 PM 84.2 °F 88.4 °F 69.8 °F 62% 29.80 in 6.2 mi Calm Calm - N/A   Unknown